Weather History for Hot Springs, VA

Change the Weather History Date:

Saturday, August 9, 2014

  Actual Average Record
Temperature  
Mean Temperature 58 °F -  
Max Temperature 59 °F 74 °F 86 °F (2001)
Min Temperature 56 °F 59 °F 55 °F (2008)
Degree Days  
Heating Degree Days 8    
Growing Degree Days 8 (Base 50)    
Moisture  
Dew Point 57 °F    
Average Humidity 96    
Maximum Humidity 96    
Minimum Humidity 94    
Precipitation  
Precipitation 0.09 in - - ()
Sea Level Pressure  
Sea Level Pressure 30.23 in    
Wind  
Wind Speed 6 mph (SE)    
Max Wind Speed 9 mph    
Max Gust Speed -    
Averages and records for this station are not official NWS values.
T = Trace of Precipitation, MM = Missing Value Source: NWS Daily Summary

Daily Weather History Graph

Daily Weather History Graph

Search for Another Location

Airport:

Trip Planner

Search our weather history database for the weather conditions in past years. The results will help you decide how hot, cold, wet, or windy it might be!

Date:

Astronomy

Aug. 09, 2014 Rise Set
Actual Time 6:29 AM EDT 8:19 PM EDT
Civil Twilight 6:00 AM EDT 8:48 PM EDT
Nautical Twilight 5:26 AM EDT 9:22 PM EDT
Astronomical Twilight 4:49 AM EDT 9:59 PM EDT
Moon 7:20 PM EDT (8/9) 5:08 AM EDT (8/9)
Length of Visible Light 14h 47m
Length of Day
13h 50m
Waxing Gibbous, 98% of the Moon is Illuminated
Aug 9
Waxing Gibbous
Aug 10
Full
Aug 17
Last Quarter
Aug 25
New
Sep 2
First Quarter

Hourly Weather History & Observations

Time (EDT) Temp. Dew Point Humidity Pressure Visibility Wind Dir Wind Speed Gust Speed Precip Events Conditions
12:15 AM 59.9 °F 58.5 °F 95% 30.23 in 0.2 mi SSE 6.9 mph - N/A Rain Rain
12:35 AM 59.9 °F 58.5 °F 95% 30.23 in 0.2 mi SSE 5.8 mph - N/A Rain Rain
1:35 AM 59.5 °F 58.1 °F 95% 30.23 in 0.2 mi SSE 5.8 mph - N/A Rain Rain
1:55 AM 59.2 °F 57.9 °F 96% 30.23 in 0.2 mi SSE 4.6 mph - N/A Rain Rain
2:15 AM 59.2 °F 57.7 °F 95% 30.22 in 0.2 mi SSE 3.5 mph - N/A Rain Rain
2:35 AM 59.0 °F 57.4 °F 94% 30.22 in 0.2 mi SE 5.8 mph - 0.01 in Rain Light Rain
2:55 AM 58.6 °F 57.2 °F 95% 30.21 in 0.2 mi SE 6.9 mph - 0.02 in Rain Rain
3:15 AM 58.3 °F 57.0 °F 96% 30.21 in 0.2 mi SE 6.9 mph - N/A Rain Rain
3:35 AM 58.3 °F 56.8 °F 95% 30.21 in 0.2 mi SSE 6.9 mph - 0.01 in Rain Rain
3:55 AM 58.1 °F 56.7 °F 95% 30.20 in 0.2 mi SSE 5.8 mph - 0.01 in Rain Rain
4:15 AM 58.1 °F 56.5 °F 94% 30.20 in 0.2 mi SSE 8.1 mph - N/A Rain Rain
4:35 AM 57.7 °F 56.3 °F 95% 30.20 in 0.2 mi SSE 9.2 mph - N/A Rain Rain
4:55 AM 57.2 °F 55.8 °F 95% 30.19 in 0.2 mi SSE 6.9 mph - N/A Rain Light Rain
5:15 AM 56.5 °F 55.4 °F 96% 30.20 in 0.5 mi South 9.2 mph - N/A Rain Light Rain
5:35 AM 56.8 °F 55.6 °F 96% 30.21 in 0.2 mi South 8.1 mph - N/A Fog Fog
5:55 AM 57.2 °F 55.9 °F 96% 30.21 in 0.2 mi South 8.1 mph - N/A Fog Fog
6:15 AM 57.4 °F 56.3 °F 96% 30.21 in 0.2 mi South 5.8 mph - N/A Fog Fog
6:35 AM 57.6 °F 56.3 °F 96% 30.21 in 0.2 mi SSE 5.8 mph - N/A Rain Light Rain
6:55 AM 57.7 °F 56.3 °F 95% 30.22 in 0.2 mi SSE 4.6 mph - N/A Rain Light Rain
7:15 AM 57.7 °F 56.5 °F 96% 30.22 in 0.2 mi SSE 3.5 mph - N/A Rain Light Rain
7:35 AM 58.1 °F 56.5 °F 94% 30.23 in 0.2 mi SE 3.5 mph - N/A Rain Light Rain
7:55 AM 58.1 °F 56.7 °F 95% 30.22 in 0.2 mi SE 4.6 mph - N/A Rain Light Rain
8:15 AM 58.1 °F 56.8 °F 96% 30.23 in 0.2 mi SE 5.8 mph - N/A Rain Light Rain
8:35 AM 58.3 °F 56.8 °F 95% 30.23 in 0.2 mi SE 6.9 mph - N/A Rain Rain
8:55 AM 58.1 °F 56.8 °F 96% 30.23 in 0.2 mi ESE 6.9 mph - N/A Rain Light Rain
9:15 AM 58.3 °F 57.2 °F 96% 30.23 in 0.2 mi SE 5.8 mph - N/A Rain Light Rain
9:35 AM 58.5 °F 57.2 °F 96% 30.23 in 0.2 mi ESE 5.8 mph - N/A Rain Light Rain
9:55 AM 58.5 °F 57.2 °F 96% 30.23 in 0.2 mi ESE 5.8 mph - 0.01 in Rain Rain
10:15 AM 58.6 °F 57.2 °F 95% 30.23 in 0.2 mi SE 4.6 mph - N/A Rain Light Rain
10:35 AM 58.5 °F 57.2 °F 96% 30.24 in 0.2 mi ESE 3.5 mph - 0.01 in Rain Light Rain
10:55 AM 58.5 °F 57.2 °F 96% 30.25 in 0.2 mi SE 3.5 mph - 0.02 in Rain Light Rain
11:15 AM 58.5 °F 57.2 °F 96% 30.26 in 0.2 mi SE 3.5 mph - N/A Rain Light Rain
11:35 AM 58.3 °F 57.2 °F 96% 30.26 in 0.2 mi SE 3.5 mph - 0.01 in Rain Light Rain
11:55 AM 58.6 °F 57.2 °F 95% 30.26 in 0.2 mi SE 4.6 mph - 0.01 in Rain Light Rain
12:15 PM 58.3 °F 57.0 °F 96% 30.26 in 0.2 mi SE 5.8 mph - N/A Rain Light Rain
12:35 PM 58.3 °F 57.2 °F 96% 30.25 in 0.2 mi ESE 5.8 mph - N/A Rain Light Rain
1:15 PM 58.5 °F 57.2 °F 96% 30.24 in 0.2 mi East 5.8 mph - 0.01 in Rain Light Rain
1:35 PM 58.6 °F 57.4 °F 96% 30.24 in 0.2 mi East 6.9 mph - 0.01 in Rain Light Rain
1:55 PM 59.0 °F 57.7 °F 96% 30.24 in 0.2 mi ESE 6.9 mph - 0.01 in Rain Light Rain
2:15 PM 58.8 °F 57.4 °F 95% 30.24 in 0.2 mi ESE 4.6 mph - N/A Rain Light Rain
2:35 PM 59.2 °F 58.1 °F 96% 30.24 in 0.2 mi ESE 4.6 mph - N/A Rain Light Rain
2:55 PM 59.0 °F 57.4 °F 94% 30.24 in 0.2 mi ESE 6.9 mph - 0.01 in Rain Light Rain
3:15 PM 58.6 °F 57.4 °F 96% 30.23 in 0.2 mi SE 6.9 mph - N/A Rain Light Rain
3:35 PM 59.0 °F 57.7 °F 96% 30.23 in 0.2 mi ESE 8.1 mph - N/A Rain Light Rain
3:55 PM 58.5 °F 57.2 °F 96% 30.22 in 0.2 mi SE 5.8 mph - N/A Rain Light Rain
4:15 PM 58.6 °F 57.2 °F 95% 30.22 in 0.2 mi SE 8.1 mph - N/A Rain Light Rain
4:55 PM 59.0 °F 57.6 °F 95% 30.21 in 0.2 mi SE 6.9 mph - N/A Rain Light Rain
5:20 PM 59.0 °F 57.7 °F 96% 30.22 in 0.2 mi SE 5.8 mph - N/A Rain Light Rain
5:35 PM 59.0 °F 57.6 °F 95% 30.22 in 0.2 mi SE 5.8 mph - N/A Rain Light Rain
5:55 PM 58.8 °F 57.4 °F 95% 30.22 in 0.2 mi SE 5.8 mph - N/A Rain Light Rain
6:15 PM 58.5 °F 57.2 °F 96% 30.22 in 0.2 mi SE 5.8 mph - N/A Rain Light Rain
6:35 PM 58.3 °F 57.2 °F 96% 30.22 in 0.2 mi ESE 3.5 mph - N/A Rain Light Rain
6:55 PM 58.5 °F 57.2 °F 96% 30.22 in 0.2 mi SE 4.6 mph - N/A Rain Light Rain
7:15 PM 58.5 °F 57.2 °F 96% 30.22 in 0.2 mi ESE 6.9 mph - N/A Rain Light Rain
7:35 PM 58.3 °F 57.2 °F 96% 30.22 in 0.2 mi East 5.8 mph - N/A Rain Light Rain
7:55 PM 58.1 °F 56.8 °F 96% 30.22 in 0.2 mi ESE 5.8 mph - N/A Rain Light Rain
8:15 PM 58.1 °F 56.7 °F 95% 30.22 in 0.2 mi ESE 5.8 mph - N/A Rain Light Rain
8:35 PM 58.1 °F 56.7 °F 95% 30.22 in 0.2 mi SE 6.9 mph - N/A Rain Light Rain
8:55 PM 58.1 °F 56.7 °F 95% 30.22 in 0.2 mi SE 8.1 mph - N/A Rain Light Rain
9:15 PM 58.1 °F 56.7 °F 95% 30.23 in 0.2 mi SE 8.1 mph - N/A Rain Light Rain
9:55 PM 57.9 °F 56.7 °F 96% 30.24 in 0.2 mi SE 4.6 mph - N/A Rain Light Rain
10:15 PM 58.1 °F 56.7 °F 95% 30.24 in 0.2 mi SE 8.1 mph - N/A Rain Light Rain
10:35 PM 57.7 °F 56.5 °F 96% 30.24 in 0.2 mi SE 8.1 mph - N/A Rain Light Rain
10:55 PM 57.7 °F 56.5 °F 96% 30.24 in 0.2 mi SE 6.9 mph - N/A Rain Light Rain
11:35 PM 57.4 °F 56.3 °F 96% 30.24 in 0.2 mi ESE 8.1 mph - N/A Rain Light Rain
11:55 PM 57.4 °F 56.3 °F 96% 30.24 in 0.2 mi SE 6.9 mph - N/A Rain Light Rain